Location: ??
(34.7707°N, 135.6540°E)
Time: 05:53:01
(UTC+00:00)

IDEFIX/ARIANE 42P - Pass Details

Date: 09 April 2020
Orbit: 786 x 802 km, 98.4° (Epoch: 05 June)

Event Time Altitude Azimuth Distance (km) Brightness Sun altitude
Rises 17:36:50 0° 23° (NNE) 3,288 6.6 -33.3°
Reaches altitude 10° 17:39:23 10° 33° (NNE) 2,357 5.8 -32.9°
Maximum altitude 17:44:05 34° 98° (E) 1,279 3.9 -32.1°
Enters shadow 17:44:28 34° 107° (ESE) 1,289 3.8 -32.1°
